EA1AXY-13 Monterrei ES current weather conditions

sailwx.info

Wind from 352 at 1 knots gusting 6

Air temperature 1.7° C
Dewpoint 0.5° C

Last reported at 2017-Dec-17 00:05 UTC.
Time now 2017-Dec-17 00:28 UTC

Location: N 41°56' W 007°34'.
View on Google Maps.

See reports from other nearby stations

  
Tides and Currents Weather Stations Pressure Air Temp Water Temp Dewpoint Dewpoint Depression Visibility Wind Speed Wind Dir Waves Ship Positions
date/time (UTC)wind fromknots sea level pressurealtimeterstation pressurevisibilityair tempwater tempwave heightnotes
2017-Dec-17 00:10 349 1 gusting 6 1.7
2017-Dec-17 00:05 352 1 gusting 6 1.7
2017-Dec-17 00:00 331 2 gusting 7 1.7
2017-Dec-16 23:55 342 2 gusting 7 2.2
2017-Dec-16 23:50 331 2 gusting 6 2.2
2017-Dec-16 23:45 318 2 gusting 6 2.2
2017-Dec-16 23:40 331 2 gusting 6 2.2
2017-Dec-16 23:35 325 2 gusting 6 1.7
2017-Dec-16 23:30 341 2 gusting 6 1.7
2017-Dec-16 23:25 347 2 gusting 6 1.7
2017-Dec-16 23:20 320 2 gusting 6 1.7
2017-Dec-16 23:15 321 1 gusting 6 1.7
2017-Dec-16 23:10 338 1 gusting 6 1.7
2017-Dec-16 23:05 330 1 gusting 6 1.7
2017-Dec-16 23:00 358 1 gusting 6 1.7
2017-Dec-16 22:55 007 1 gusting 6 1.7
2017-Dec-16 22:50 349 1 gusting 5 1.7
2017-Dec-16 22:45 353 1 gusting 5 1.7
2017-Dec-16 22:40 348 1 gusting 5 1.7
2017-Dec-16 22:35 334 1 gusting 5 1.7
2017-Dec-16 22:30 340 1 gusting 4 1.7
2017-Dec-16 22:25 002 0 gusting 4 1.7
2017-Dec-16 22:20 014 1 gusting 6 1.7
2017-Dec-16 22:15 021 0 gusting 6 2.2
2017-Dec-16 22:10 021 0 gusting 4 2.2
2017-Dec-16 22:05 005 1 gusting 5 2.2
2017-Dec-16 22:00 004 1 gusting 5 2.2
2017-Dec-16 21:55 008 0 gusting 3 2.2
2017-Dec-16 21:50 001 0 gusting 3 2.2
2017-Dec-16 21:45 010 0 gusting 3 2.2
2017-Dec-16 21:40 015 1 gusting 6 2.8
2017-Dec-16 21:35 001 1 gusting 6 2.8
2017-Dec-16 21:30 340 2 gusting 6 2.8
2017-Dec-16 21:25 347 1 gusting 5 2.2
2017-Dec-16 21:20 359 1 gusting 6 2.8
2017-Dec-16 21:15 348 1 gusting 6 2.8
2017-Dec-16 21:10 351 0 gusting 5 2.8
2017-Dec-16 21:05 350 0 gusting 3 2.8
2017-Dec-16 21:00 353 0 gusting 3 2.8
2017-Dec-16 20:55 328 1 gusting 6 2.8
2017-Dec-16 20:50 305 1 gusting 6 2.8
2017-Dec-16 20:45 315 1 gusting 6 2.8
2017-Dec-16 20:40 306 2 gusting 6 2.8
2017-Dec-16 20:35 313 2 gusting 8 2.8
2017-Dec-16 20:30 334 3 gusting 8 2.8
2017-Dec-16 20:25 336 3 gusting 6 2.8
2017-Dec-16 20:20 343 3 gusting 6 2.8
2017-Dec-16 20:15 356 3 gusting 6 2.8
2017-Dec-16 20:10 018 3 gusting 6 2.8
2017-Dec-16 20:05 012 2 gusting 6 2.8
2017-Dec-16 20:00 349 2 gusting 7 3.3
2017-Dec-16 19:55 330 3 gusting 9 3.3
2017-Dec-16 19:50 327 3 gusting 9 3.3
2017-Dec-16 19:45 353 3 gusting 7 3.3
2017-Dec-16 19:40 344 3 gusting 7 3.3
2017-Dec-16 19:35 346 3 gusting 9 3.3
2017-Dec-16 19:30 347 3 gusting 9 3.9
2017-Dec-16 19:25 347 3 gusting 8 3.9
2017-Dec-16 19:20 330 3 gusting 8 3.9
2017-Dec-16 19:15 330 3 gusting 7 3.9
2017-Dec-16 19:10 343 3 gusting 8 3.9
2017-Dec-16 19:05 336 2 gusting 8 3.9
2017-Dec-16 19:00 334 2 gusting 6 3.9
2017-Dec-16 18:55 350 3 gusting 6 3.9
2017-Dec-16 18:50 346 3 gusting 7 3.9
2017-Dec-16 18:45 323 3 gusting 8 3.9
2017-Dec-16 18:40 327 2 gusting 8 3.9
2017-Dec-16 18:35 328 2 gusting 7 4.4
2017-Dec-16 18:30 336 2 gusting 6 4.4
2017-Dec-16 18:25 340 2 gusting 6 4.4
2017-Dec-16 18:20 330 3 gusting 9 4.4
2017-Dec-16 18:15 320 3 gusting 9 4.4
2017-Dec-16 18:10 312 2 gusting 9 4.4
2017-Dec-16 18:05 323 2 gusting 6 4.4
2017-Dec-16 18:00 307 2 gusting 8 4.4
2017-Dec-16 17:55 321 2 gusting 8 5.6
2017-Dec-16 17:50 349 2 gusting 6 4.4
2017-Dec-16 17:45 352 3 gusting 6 4.4
2017-Dec-16 17:40 352 3 gusting 7 4.4
2017-Dec-16 17:35 347 3 gusting 9 4.4
2017-Dec-16 17:30 351 3 gusting 9 4.4
2017-Dec-16 17:25 344 3 gusting 9 5.0
2017-Dec-16 17:20 329 3 gusting 9 5.0
2017-Dec-16 17:15 330 3 gusting 8 5.0
2017-Dec-16 17:10 337 3 gusting 7 5.0
2017-Dec-16 17:05 332 2 gusting 6 5.0
2017-Dec-16 17:00 314 2 gusting 6 5.6
2017-Dec-16 16:55 309 2 gusting 8 5.6
2017-Dec-16 16:50 322 4 gusting 8 5.6
2017-Dec-16 16:45 331 4 gusting 8 6.1
2017-Dec-16 16:40 332 3 gusting 8 6.1
2017-Dec-16 16:35 356 4 gusting 13 6.1
2017-Dec-16 16:30 004 4 gusting 13 6.7
2017-Dec-16 16:25 347 4 gusting 10 6.7
2017-Dec-16 16:20 342 4 gusting 9 6.7
2017-Dec-16 16:15 329 3 gusting 9 6.7
2017-Dec-16 16:10 342 3 gusting 10 7.2
2017-Dec-16 16:05 004 4 gusting 10 7.2
2017-Dec-16 16:00 344 4 gusting 9 7.2
2017-Dec-16 15:55 329 3 gusting 10 7.2
2017-Dec-16 15:50 334 4 gusting 10 7.2
2017-Dec-16 15:45 346 4 gusting 10 7.8
2017-Dec-16 15:40 352 4 gusting 12 7.8
2017-Dec-16 15:35 349 4 gusting 12 8.3
2017-Dec-16 15:30 354 4 gusting 9 8.3
2017-Dec-16 15:25 329 4 gusting 8 8.3
2017-Dec-16 15:20 323 4 gusting 9 8.3
2017-Dec-16 15:15 324 4 gusting 9 7.8
2017-Dec-16 15:10 333 4 gusting 9 7.2
2017-Dec-16 15:05 337 3 gusting 9 6.7
2017-Dec-16 15:00 327 3 gusting 8 6.7
2017-Dec-16 14:55 327 3 gusting 8 6.7
2017-Dec-16 14:50 324 3 gusting 7 6.7
2017-Dec-16 14:45 324 3 gusting 7 6.7
2017-Dec-16 14:40 336 3 gusting 8 7.2
2017-Dec-16 14:35 324 3 gusting 8 7.2
2017-Dec-16 14:30 316 3 gusting 8 7.8
2017-Dec-16 14:25 328 4 gusting 8 7.8
2017-Dec-16 14:20 331 4 gusting 8 7.8
2017-Dec-16 14:15 328 4 gusting 8 8.3
2017-Dec-16 14:10 324 3 gusting 7 8.3
2017-Dec-16 14:05 327 3 gusting 6 7.2
2017-Dec-16 14:00 342 2 gusting 6 7.2
2017-Dec-16 13:55 331 3 gusting 6 7.2
2017-Dec-16 13:50 319 3 gusting 7 7.2
2017-Dec-16 13:45 325 2 gusting 7 7.2
2017-Dec-16 13:40 311 3 gusting 6 7.2
2017-Dec-16 13:35 307 2 gusting 7 7.2
2017-Dec-16 13:30 328 3 gusting 7 7.8
2017-Dec-16 13:25 001 3 gusting 9 7.8
2017-Dec-16 13:20 357 3 gusting 9 7.8
2017-Dec-16 13:15 349 4 gusting 9 7.8
2017-Dec-16 13:10 359 3 gusting 8 7.8
2017-Dec-16 13:05 355 4 gusting 9 7.8
2017-Dec-16 13:00 343 4 gusting 9 7.2
2017-Dec-16 12:55 332 4 gusting 9 6.7
2017-Dec-16 12:50 320 4 gusting 9 7.2
2017-Dec-16 12:45 312 4 gusting 9 7.2
2017-Dec-16 12:40 324 3 gusting 9 7.2
2017-Dec-16 12:35 338 3 gusting 9 7.8
2017-Dec-16 12:30 349 3 gusting 9 7.8
2017-Dec-16 12:25 333 4 gusting 9 7.8
2017-Dec-16 12:20 326 5 gusting 11 7.8
2017-Dec-16 12:15 346 5 gusting 11 7.8
2017-Dec-16 12:10 011 4 gusting 10 8.3
2017-Dec-16 12:05 015 4 gusting 10 8.3
2017-Dec-16 12:00 358 5 gusting 13 8.3
2017-Dec-16 11:55 338 6 gusting 13 7.8
2017-Dec-16 11:50 343 5 gusting 12 8.3
2017-Dec-16 11:45 353 5 gusting 12 8.3
2017-Dec-16 11:40 359 5 gusting 13 8.3
2017-Dec-16 11:35 335 5 gusting 13 7.8
2017-Dec-16 11:30 322 6 gusting 13 7.8
2017-Dec-16 11:25 338 5 gusting 13 7.8
2017-Dec-16 11:20 343 5 gusting 13 7.8
2017-Dec-16 11:15 336 6 gusting 13 7.8
2017-Dec-16 11:10 341 6 gusting 13 7.8
2017-Dec-16 11:05 341 5 gusting 13 7.2
2017-Dec-16 11:00 318 4 gusting 10 7.8
2017-Dec-16 10:55 313 4 gusting 13 7.2
2017-Dec-16 10:50 340 3 gusting 13 7.2
2017-Dec-16 10:45 344 3 gusting 12 6.7
2017-Dec-16 10:40 329 4 gusting 10 6.7
2017-Dec-16 10:35 351 4 gusting 10 6.1
2017-Dec-16 10:30 337 4 gusting 9 6.7
2017-Dec-16 10:25 333 4 gusting 13 7.2
2017-Dec-16 10:20 343 3 gusting 13 7.2
2017-Dec-16 10:15 327 3 gusting 7 7.8
2017-Dec-16 10:10 328 3 gusting 7 7.2
2017-Dec-16 10:05 009 4 gusting 9 6.7
2017-Dec-16 10:00 020 4 gusting 9 6.1
2017-Dec-16 09:55 345 5 gusting 9 5.6
2017-Dec-16 09:50 316 5 gusting 9 5.6
2017-Dec-16 09:45 322 4 gusting 9 5.6
2017-Dec-16 09:40 322 4 gusting 9 5.6
2017-Dec-16 09:35 317 3 gusting 8 5.6
2017-Dec-16 09:30 331 2 gusting 8 5.6
2017-Dec-16 09:25 324 1 gusting 6 6.1
2017-Dec-16 09:20 331 2 gusting 7 5.6
2017-Dec-16 09:15 335 2 gusting 7 5.6
2017-Dec-16 09:10 329 2 gusting 7 5.0
2017-Dec-16 09:05 330 2 gusting 7 5.0
2017-Dec-16 09:00 322 2 gusting 6 4.4
2017-Dec-16 08:55 329 3 gusting 6 4.4
2017-Dec-16 08:50 359 2 gusting 6 3.9
2017-Dec-16 08:45 007 2 gusting 8 3.9
2017-Dec-16 08:40 009 2 gusting 8 3.9
2017-Dec-16 08:35 357 2 gusting 8 3.3
2017-Dec-16 08:30 345 2 gusting 7 3.9
2017-Dec-16 08:25 358 2 gusting 7 3.3
2017-Dec-16 08:20 352 2 gusting 6 3.3
2017-Dec-16 08:15 356 1 gusting 5 3.3
2017-Dec-16 08:10 024 1 gusting 6 3.3
2017-Dec-16 08:05 002 2 gusting 7 3.3
2017-Dec-16 08:00 345 2 gusting 7 3.3
2017-Dec-16 07:55 357 1 gusting 6 3.3
2017-Dec-16 07:50 340 2 gusting 6 3.3
2017-Dec-16 07:45 338 2 gusting 6 3.3
2017-Dec-16 07:40 350 1 gusting 6 2.8
2017-Dec-16 07:35 356 1 gusting 6 2.8
2017-Dec-16 07:30 342 2 gusting 6 3.3
2017-Dec-16 07:25 333 2 gusting 6 3.3
2017-Dec-16 07:20 337 2 gusting 6 3.3
2017-Dec-16 07:15 338 2 gusting 6 3.3
2017-Dec-16 07:10 343 2 gusting 6 3.3
2017-Dec-16 07:05 345 2 gusting 8 3.3
2017-Dec-16 07:00 003 1 gusting 8 3.3
2017-Dec-16 06:55 002 1 gusting 6 3.3
2017-Dec-16 06:50 335 2 gusting 6 2.8
2017-Dec-16 06:45 339 1 gusting 6 2.8
2017-Dec-16 06:40 036 1 gusting 6 2.8
2017-Dec-16 06:35 020 1 gusting 6 2.8
2017-Dec-16 06:30 352 1 gusting 5 2.8
2017-Dec-16 06:25 353 1 gusting 5 3.3
2017-Dec-16 06:20 008 1 gusting 5 3.3
2017-Dec-16 06:15 009 1 gusting 6 3.3
2017-Dec-16 06:10 012 1 gusting 6 3.3
2017-Dec-16 06:05 011 1 gusting 6 3.3
2017-Dec-16 06:00 011 2 gusting 6 3.3
2017-Dec-16 05:55 008 2 gusting 6 3.3
2017-Dec-16 05:50 348 2 gusting 6 3.3
2017-Dec-16 05:45 004 1 gusting 6 3.3
2017-Dec-16 05:40 011 1 gusting 6 3.3
2017-Dec-16 05:35 354 2 gusting 6 3.3
2017-Dec-16 05:30 348 2 gusting 7 3.3
2017-Dec-16 05:25 349 2 gusting 7 3.3
2017-Dec-16 05:20 349 2 gusting 7 3.3
2017-Dec-16 05:15 342 3 gusting 8 3.3
2017-Dec-16 05:10 333 3 gusting 8 3.3
2017-Dec-16 05:05 338 2 gusting 8 3.3
2017-Dec-16 05:00 338 3 gusting 7 3.3
2017-Dec-16 04:55 335 3 gusting 6 3.3
2017-Dec-16 04:50 338 2 gusting 6 3.3
2017-Dec-16 04:45 350 2 gusting 6 3.3
2017-Dec-16 04:40 356 2 gusting 6 3.3
2017-Dec-16 04:35 351 2 gusting 9 3.3
2017-Dec-16 04:30 354 2 gusting 9 3.3
2017-Dec-16 04:25 335 2 gusting 8 3.3
2017-Dec-16 04:20 327 3 gusting 8 3.3
2017-Dec-16 04:15 334 3 gusting 7 3.3
2017-Dec-16 04:10 329 2 gusting 6 3.3
2017-Dec-16 04:05 332 2 gusting 6 3.3
2017-Dec-16 04:00 348 2 gusting 6 3.3
2017-Dec-16 03:55 347 3 gusting 6 3.3
2017-Dec-16 03:50 350 2 gusting 6 3.3
2017-Dec-16 03:45 339 3 gusting 6 3.3
2017-Dec-16 03:40 329 2 gusting 6 3.3
2017-Dec-16 03:35 327 2 gusting 6 3.3
2017-Dec-16 03:30 329 1 gusting 6 3.3
2017-Dec-16 03:25 323 1 gusting 4 3.3
2017-Dec-16 03:20 319 0 gusting 4 3.3
2017-Dec-16 03:15 320 0 gusting 3 2.8
2017-Dec-16 03:10 317 2.8
2017-Dec-16 03:05 328 0 gusting 3 2.8
2017-Dec-16 03:00 333 0 gusting 3 2.8
2017-Dec-16 02:55 339 0 gusting 3 2.8
2017-Dec-16 02:50 355 2.8
2017-Dec-16 02:45 008 2.8
2017-Dec-16 02:40 006 2.8
2017-Dec-16 02:35 350 0 gusting 2 3.3
2017-Dec-16 02:30 329 0 gusting 3 3.3
2017-Dec-16 02:25 322 0 gusting 3 3.3
2017-Dec-16 02:20 318 1 gusting 6 3.3
2017-Dec-16 02:15 311 1 gusting 6 3.3
2017-Dec-16 02:10 314 2 gusting 6 3.3
2017-Dec-16 02:05 319 2 gusting 6 3.3
2017-Dec-16 02:00 316 2 gusting 6 3.3
2017-Dec-16 01:55 317 2 gusting 6 3.3
2017-Dec-16 01:50 323 1 gusting 6 3.3
2017-Dec-16 01:45 316 0 gusting 3 3.3
2017-Dec-16 01:40 340 1 gusting 3 3.3
2017-Dec-16 01:35 340 2 gusting 6 3.9
2017-Dec-16 01:30 320 3 gusting 6 3.9
2017-Dec-16 01:25 332 3 gusting 7 3.9
2017-Dec-16 01:20 344 3 gusting 7 3.9
2017-Dec-16 01:15 338 3 gusting 8 3.9
2017-Dec-16 01:10 325 2 gusting 8 3.9
2017-Dec-16 01:05 327 2 gusting 6 3.9
2017-Dec-16 01:00 338 1 gusting 6 3.9
2017-Dec-16 00:55 339 1 gusting 4 3.9
2017-Dec-16 00:50 341 1 gusting 6 3.9
2017-Dec-16 00:45 329 2 gusting 6 3.9
2017-Dec-16 00:40 332 3 gusting 9 3.9
2017-Dec-16 00:35 331 3 gusting 9 3.9
2017-Dec-16 00:30 325 2 gusting 7 3.9
2017-Dec-16 00:25 318 2 gusting 7 3.9
2017-Dec-16 00:20 302 2 gusting 5 3.9
2017-Dec-16 00:15 300 2 gusting 6 3.9
2017-Dec-16 00:10 313 2 gusting 6 3.9
2017-Dec-16 00:05 327 2 gusting 6 3.9
2017-Dec-15 23:55 325 3 gusting 8 3.9
2017-Dec-15 23:50 325 2 gusting 8 3.9
2017-Dec-15 23:45 308 1 gusting 6 3.9
2017-Dec-15 23:40 304 1 gusting 5 3.9
2017-Dec-15 23:35 330 1 gusting 5 3.9
2017-Dec-15 23:30 342 1 gusting 5 3.9
2017-Dec-15 23:25 327 2 gusting 6 3.9
2017-Dec-15 23:20 316 2 gusting 6 3.9
2017-Dec-15 23:15 330 1 gusting 6 3.9
2017-Dec-15 23:10 343 2 gusting 5 3.9
2017-Dec-15 23:05 337 2 gusting 6 3.9
2017-Dec-15 23:00 326 2 gusting 6 3.9
2017-Dec-15 22:55 316 1 gusting 5 3.9
2017-Dec-15 22:50 313 0 gusting 5 4.4
2017-Dec-15 22:45 311 1 gusting 4 3.9
2017-Dec-15 22:40 325 2 gusting 6 3.9
2017-Dec-15 22:35 321 2 gusting 6 3.9
2017-Dec-15 22:30 312 2 gusting 6 3.9
2017-Dec-15 22:25 320 1 gusting 6 3.9
2017-Dec-15 22:20 318 1 gusting 6 3.9
2017-Dec-15 22:15 319 2 gusting 6 3.9
2017-Dec-15 22:10 314 3 gusting 8 3.9
2017-Dec-15 22:05 311 3 gusting 8 3.9
2017-Dec-15 22:00 327 3 gusting 8 3.9
2017-Dec-15 21:55 341 3 gusting 8 3.9
2017-Dec-15 21:50 337 2 gusting 8 3.9
2017-Dec-15 21:45 338 2 gusting 8 3.9
2017-Dec-15 21:40 328 1 gusting 5 3.9
2017-Dec-15 21:35 320 1 gusting 5 3.9
2017-Dec-15 21:30 326 2 gusting 6 3.9
2017-Dec-15 21:25 323 2 gusting 6 6.1
2017-Dec-15 21:20 325 1 gusting 5 3.9
2017-Dec-15 21:15 321 1 gusting 5 3.9
2017-Dec-15 21:10 305 1 gusting 5 3.9
2017-Dec-15 21:05 306 2 gusting 6 3.9
2017-Dec-15 21:00 315 2 gusting 6 3.9
2017-Dec-15 20:55 314 2 gusting 6 3.9
2017-Dec-15 20:50 318 2 gusting 6 3.9
2017-Dec-15 20:45 326 2 gusting 6 3.9
2017-Dec-15 20:40 334 2 gusting 6 3.9
2017-Dec-15 20:35 342 3 gusting 6 3.9
2017-Dec-15 20:30 338 3 gusting 6 3.9
2017-Dec-15 20:25 311 2 gusting 6 4.4
2017-Dec-15 20:20 302 2 gusting 6 4.4
2017-Dec-15 20:15 314 2 gusting 6 4.4
2017-Dec-15 20:10 328 2 gusting 6 3.9
2017-Dec-15 20:05 326 1 gusting 6 3.9
2017-Dec-15 20:00 311 1 gusting 6 3.9
2017-Dec-15 19:55 295 1 gusting 4 3.9
2017-Dec-15 19:50 288 1 gusting 6 3.9
2017-Dec-15 19:45 329 1 gusting 6 3.9
2017-Dec-15 19:40 319 1 gusting 5 3.9
2017-Dec-15 19:35 308 1 gusting 6 4.4
2017-Dec-15 19:30 314 1 gusting 6 4.4
2017-Dec-15 19:25 310 1 gusting 6 4.4
2017-Dec-15 19:20 301 2 gusting 6 4.4
2017-Dec-15 19:15 299 3 gusting 6 4.4
2017-Dec-15 19:10 306 3 gusting 6 4.4
2017-Dec-15 19:05 314 2 gusting 6 4.4
2017-Dec-15 19:00 312 2 gusting 6 4.4
2017-Dec-15 18:55 316 2 gusting 6 3.9
2017-Dec-15 18:50 323 2 gusting 6 3.9
2017-Dec-15 18:45 321 2 gusting 6 3.9
2017-Dec-15 18:40 319 2 gusting 6 4.4
2017-Dec-15 18:35 322 1 gusting 6 4.4
2017-Dec-15 18:30 327 2 gusting 6 4.4
2017-Dec-15 18:25 325 2 gusting 6 4.4
2017-Dec-15 18:20 330 2 gusting 8 4.4
2017-Dec-15 18:15 325 3 gusting 8 4.4
2017-Dec-15 18:10 314 4 gusting 8 4.4
2017-Dec-15 18:05 308 3 gusting 7 4.4
2017-Dec-15 18:00 319 4 gusting 7 4.4
2017-Dec-15 17:55 341 3 gusting 7 4.4
2017-Dec-15 17:50 335 3 gusting 7 4.4
2017-Dec-15 17:45 330 3 gusting 6 4.4
2017-Dec-15 17:40 329 3 gusting 6 4.4
2017-Dec-15 17:35 329 1 gusting 5 4.4
2017-Dec-15 17:30 332 1 gusting 5 4.4
2017-Dec-15 17:25 326 1 gusting 3 4.4
2017-Dec-15 17:20 326 0 gusting 5 4.4
2017-Dec-15 17:15 331 0 gusting 5 4.4
2017-Dec-15 17:10 333 0 gusting 3 5.0
2017-Dec-15 17:05 002 1 gusting 6 5.0
2017-Dec-15 17:00 342 1 gusting 6 5.6
2017-Dec-15 16:55 330 1 gusting 6 5.6
2017-Dec-15 16:50 337 2 gusting 6 5.6
2017-Dec-15 16:45 012 2 gusting 6 5.6
2017-Dec-15 16:40 042 2 gusting 6 6.1
2017-Dec-15 16:35 344 1 gusting 6 6.1
2017-Dec-15 16:30 322 1 gusting 6 6.7
2017-Dec-15 16:25 006 2 gusting 6 6.7
2017-Dec-15 16:20 023 2 gusting 8 6.7
2017-Dec-15 16:15 019 1 gusting 8 6.7
2017-Dec-15 16:10 340 1 gusting 6 6.7
2017-Dec-15 16:05 343 1 gusting 6 6.7
2017-Dec-15 16:00 002 2 gusting 6 6.7
2017-Dec-15 15:55 350 2 gusting 6 6.7
2017-Dec-15 15:50 351 2 gusting 6 6.7
2017-Dec-15 15:45 337 2 gusting 7 6.7
2017-Dec-15 15:40 352 3 gusting 12 7.2
2017-Dec-15 15:35 011 4 gusting 12 7.2
2017-Dec-15 15:30 004 4 gusting 11 7.2
2017-Dec-15 15:25 349 4 gusting 10 7.2
2017-Dec-15 15:20 347 4 gusting 10 7.2
2017-Dec-15 15:15 356 4 gusting 10 6.7
2017-Dec-15 15:10 351 3 gusting 7 6.1
2017-Dec-15 15:05 344 3 gusting 9 6.1
2017-Dec-15 15:00 334 4 gusting 14 6.1
2017-Dec-15 14:55 334 5 gusting 14 6.7
2017-Dec-15 14:50 337 5 gusting 13 7.8
2017-Dec-15 14:45 342 4 gusting 11 8.3
2017-Dec-15 14:40 329 4 gusting 11 7.8
2017-Dec-15 14:35 321 4 gusting 9 7.8
2017-Dec-15 14:30 343 4 gusting 9 7.8
2017-Dec-15 14:25 002 4 gusting 9 7.8
2017-Dec-15 14:20 353 4 gusting 7 7.2
2017-Dec-15 14:15 348 3 gusting 7 6.7
2017-Dec-15 14:10 342 3 gusting 7 5.6
2017-Dec-15 14:05 334 2 gusting 6 5.6
2017-Dec-15 14:00 355 2 gusting 6 5.6
2017-Dec-15 13:55 355 2 gusting 7 6.1
2017-Dec-15 13:50 353 3 gusting 11 6.1
2017-Dec-15 13:45 346 4 gusting 11 6.7
2017-Dec-15 13:40 339 4 gusting 10 6.7
2017-Dec-15 13:35 346 4 gusting 9 7.2
2017-Dec-15 13:30 344 4 gusting 9 7.2
2017-Dec-15 13:25 343 3 gusting 8 7.2
2017-Dec-15 13:20 343 4 gusting 10 7.8
2017-Dec-15 13:15 350 3 gusting 10 7.8
2017-Dec-15 13:10 349 3 gusting 10 8.3
2017-Dec-15 13:05 337 4 gusting 8 7.8
2017-Dec-15 13:00 341 3 gusting 11 7.2
2017-Dec-15 12:55 350 3 gusting 11 7.2
2017-Dec-15 12:50 341 4 gusting 11 6.7
2017-Dec-15 12:45 337 4 gusting 11 6.7
2017-Dec-15 12:40 336 3 gusting 8 6.7
2017-Dec-15 12:35 334 3 gusting 7 6.7
2017-Dec-15 12:30 339 2 gusting 6 6.7
2017-Dec-15 12:25 348 2 gusting 7 7.2
2017-Dec-15 12:20 319 3 gusting 10 6.7
2017-Dec-15 12:15 316 3 gusting 10 7.2
2017-Dec-15 12:10 343 3 gusting 7 7.2
2017-Dec-15 12:05 336 3 gusting 9 7.2
2017-Dec-15 12:00 319 3 gusting 9 7.2
2017-Dec-15 11:55 311 2 gusting 7 6.7
2017-Dec-15 11:50 334 3 gusting 9 6.7
2017-Dec-15 11:45 344 4 gusting 12 6.7
2017-Dec-15 11:40 345 4 gusting 12 6.7
2017-Dec-15 11:35 340 4 gusting 8 6.7
2017-Dec-15 11:30 329 3 gusting 9 6.7
2017-Dec-15 11:25 311 2 gusting 9 6.7
2017-Dec-15 11:20 293 3 gusting 7 6.7
2017-Dec-15 11:15 309 3 gusting 7 6.7
2017-Dec-15 11:10 326 2 gusting 6 6.7
2017-Dec-15 11:05 318 3 gusting 7 6.7
2017-Dec-15 11:00 337 3 gusting 7 6.7
2017-Dec-15 10:55 333 3 gusting 8 6.7
2017-Dec-15 10:50 325 3 gusting 8 6.7
2017-Dec-15 10:45 340 2 gusting 6 6.7
2017-Dec-15 10:40 336 3 gusting 11 6.7
2017-Dec-15 10:35 327 5 gusting 11 6.7
2017-Dec-15 10:30 338 4 gusting 12 6.7
2017-Dec-15 10:25 336 4 gusting 12 6.7
2017-Dec-15 10:20 331 4 gusting 10 6.7
2017-Dec-15 10:15 330 4 gusting 9 6.7
2017-Dec-15 10:10 317 4 gusting 9 6.7
2017-Dec-15 10:05 318 5 gusting 9 6.1
2017-Dec-15 10:00 349 4 gusting 9 6.1
2017-Dec-15 09:55 351 4 gusting 11 6.1
2017-Dec-15 09:50 340 4 gusting 12 6.1
2017-Dec-15 09:45 347 5 gusting 13 6.1
2017-Dec-15 09:40 336 5 gusting 13 6.1
2017-Dec-15 09:35 327 4 gusting 12 6.1
2017-Dec-15 09:30 349 3 gusting 10 6.7
2017-Dec-15 09:25 331 4 gusting 9 6.7
2017-Dec-15 09:20 320 4 gusting 9 6.7
2017-Dec-15 09:15 335 4 gusting 10 6.7
2017-Dec-15 09:10 338 4 gusting 10 6.7
2017-Dec-15 09:05 346 4 gusting 9 6.7
2017-Dec-15 09:00 004 4 gusting 9 6.1
2017-Dec-15 08:55 323 3 gusting 8 6.1
2017-Dec-15 08:50 332 3 gusting 8 6.1
2017-Dec-15 08:45 345 3 gusting 9 6.1
2017-Dec-15 08:40 331 3 gusting 9 6.1
2017-Dec-15 08:35 335 3 gusting 9 6.1
2017-Dec-15 08:30 347 2 gusting 9 6.1
2017-Dec-15 08:25 352 2 gusting 6 6.1
2017-Dec-15 08:20 332 2 gusting 8 6.1
2017-Dec-15 08:15 312 2 gusting 8 5.6
2017-Dec-15 08:10 323 3 gusting 9 6.1
2017-Dec-15 08:05 310 3 gusting 9 6.1
2017-Dec-15 08:00 304 4 gusting 12 6.1
2017-Dec-15 07:55 320 5 gusting 12 6.1
2017-Dec-15 07:50 331 4 gusting 10 6.1
2017-Dec-15 07:45 322 4 gusting 9 6.1
2017-Dec-15 07:40 338 5 gusting 12 6.1
2017-Dec-15 07:35 335 5 gusting 12 6.7
2017-Dec-15 07:30 309 5 gusting 11 6.7
2017-Dec-15 07:25 316 5 gusting 13 6.7
2017-Dec-15 07:20 314 6 gusting 13 6.7
2017-Dec-15 07:15 318 6 gusting 13 6.7
2017-Dec-15 07:10 308 6 gusting 13 6.7
2017-Dec-15 07:05 325 5 gusting 10 7.2
2017-Dec-15 07:00 350 6 gusting 13 7.2
2017-Dec-15 06:55 344 6 gusting 14 7.2
2017-Dec-15 06:50 341 6 gusting 14 7.2
2017-Dec-15 06:45 316 6 gusting 15 7.2
2017-Dec-15 06:40 321 6 gusting 15 7.8
2017-Dec-15 06:35 292 6 gusting 15 8.3
2017-Dec-15 06:30 299 6 gusting 13 8.3
2017-Dec-15 06:25 333 4 gusting 13 8.3
2017-Dec-15 06:20 348 3 gusting 8 8.3
2017-Dec-15 06:15 343 3 gusting 7 8.3
2017-Dec-15 06:10 322 4 gusting 7 8.3
2017-Dec-15 06:05 318 3 gusting 7 8.3
2017-Dec-15 06:00 329 2 gusting 7 7.8
2017-Dec-15 05:55 321 1 gusting 4 7.8
2017-Dec-15 05:50 329 1 gusting 4 7.8
2017-Dec-15 05:45 349 1 gusting 4 7.8
2017-Dec-15 05:40 329 1 gusting 4 7.8
2017-Dec-15 05:35 325 1 gusting 5 7.8
2017-Dec-15 05:30 339 0 gusting 5 7.8
2017-Dec-15 05:25 343 0 gusting 2 7.2
2017-Dec-15 05:20 319 7.2
2017-Dec-15 05:15 319 7.2
2017-Dec-15 05:10 300 7.2
2017-Dec-15 05:05 241 7.2
2017-Dec-15 05:00 238 7.8
2017-Dec-15 04:55 316 7.8
2017-Dec-15 04:50 337 0 gusting 3 7.8
2017-Dec-15 04:45 335 0 gusting 3 7.8
2017-Dec-15 04:40 307 7.8
2017-Dec-15 04:35 303 0 gusting 3 7.8
2017-Dec-15 04:30 308 0 gusting 4 7.8
2017-Dec-15 04:25 321 7.8
2017-Dec-15 04:20 336 0 gusting 3 7.8
2017-Dec-15 04:15 332 0 gusting 3 8.3
2017-Dec-15 04:10 313 0 gusting 3 7.8
2017-Dec-15 04:05 302 7.8
2017-Dec-15 04:00 329 8.3
2017-Dec-15 03:55 329 0 gusting 3 8.3
2017-Dec-15 03:50 318 0 gusting 3 8.3
2017-Dec-15 03:45 316 0 gusting 3 8.3
2017-Dec-15 03:40 321 0 gusting 5 8.3
2017-Dec-15 03:35 324 0 gusting 5 7.8
2017-Dec-15 03:30 333 0 gusting 3 7.8
2017-Dec-15 03:25 337 0 gusting 2 7.8
2017-Dec-15 03:20 324 0 gusting 3 7.8
2017-Dec-15 03:15 313 1 gusting 4 7.8
2017-Dec-15 03:10 305 1 gusting 4 7.8
2017-Dec-15 03:05 299 1 gusting 4 7.8
2017-Dec-15 03:00 313 0 gusting 3 7.8
2017-Dec-15 02:55 333 0 gusting 3 7.8
2017-Dec-15 02:50 330 0 gusting 3 7.8
2017-Dec-15 02:45 331 0 gusting 3 7.8
2017-Dec-15 02:40 348 0 gusting 3 7.8
2017-Dec-15 02:35 345 0 gusting 3 7.8
2017-Dec-15 02:30 322 0 gusting 3 7.8
2017-Dec-15 02:25 314 7.8
2017-Dec-15 02:20 302 7.2
2017-Dec-15 02:10 090 7.2
2017-Dec-15 02:05 7.2
2017-Dec-15 02:00 181 7.2
2017-Dec-15 01:55 181 7.2
2017-Dec-15 01:50 7.2
2017-Dec-15 01:45 181 7.2
2017-Dec-15 01:40 112 7.8
2017-Dec-15 01:35 051 7.8
2017-Dec-15 01:30 055 7.8
2017-Dec-15 01:25 041 7.8
2017-Dec-15 01:20 052 7.8
2017-Dec-15 01:15 101 7.8
2017-Dec-15 01:10 096 7.8
2017-Dec-15 01:05 045 7.8
2017-Dec-15 01:00 053 7.8
2017-Dec-15 00:55 157 7.8
2017-Dec-15 00:50 252 7.8
2017-Dec-15 00:45 352 7.8
2017-Dec-15 00:40 346 7.8
2017-Dec-15 00:35 322 7.8
2017-Dec-15 00:30 327 7.8
2017-Dec-15 00:25 315 7.8
2017-Dec-15 00:20 291 7.8